FW5145 Weather Reports


Display with metric or nautical units.
time (UTC)temp
F
wind
direction
speed
MPH
gust
MPH
rain 1hr
in
rain 24hr
in
rain mn
in
humidity
%
barometer
mb
20260906000535 55 0 0.0 0.0 0.00 0.00 0.00 100 1026.3
20260906000057 55 0 0.0 0.0 0.00 0.00 0.00 100 1026.2
20260905235534 55 0 0.0 0.0 0.00 0.00 0.00 100 1026.3
20260905235031 55 0 0.0 0.0 0.00 0.00 0.00 100 1026.3
20260905234549 56 0 0.0 0.0 0.00 0.00 0.00 100 1026.3
20260905234031 56 0 0.0 0.0 0.00 0.00 0.00 100 1026.3
20260905233532 56 0 0.0 0.0 0.00 0.00 0.00 100 1026.3
20260905233043 56 0 0.0 0.0 0.00 0.00 0.00 100 1026.0
20260905232532 56 0 0.0 0.0 0.00 0.00 0.00 100 1026.0
20260905232036 56 0 0.0 0.0 0.00 0.00 0.00 100 1026.0
20260905231554 56 0 0.0 0.0 0.00 0.00 0.00 100 1025.9
20260905231034 56 0 0.0 0.0 0.00 0.00 0.00 100 1025.9
20260905230531 56 0 0.0 0.0 0.00 0.00 0.00 100 1026.1
20260905230051 56 0 0.0 0.0 0.00 0.00 0.00 100 1026.1
20260905225534 56 0 0.0 0.0 0.00 0.00 0.00 100 1026.0
20260905225032 56 0 0.0 0.0 0.00 0.00 0.00 100 1026.0
20260905224555 56 0 0.0 0.0 0.00 0.00 0.00 100 1025.9
20260905224032 56 0 0.0 0.0 0.00 0.00 0.00 100 1026.0
20260905223532 56 0 0.0 0.0 0.00 0.00 0.00 100 1026.0
20260905223050 56 0 0.0 0.0 0.00 0.00 0.00 100 1026.0
20260905222532 57 0 0.0 0.0 0.00 0.00 0.00 100 1026.1
20260905222031 57 0 0.0 0.0 0.00 0.00 0.00 100 1026.1
20260905221543 57 0 0.0 0.0 0.00 0.00 0.00 100 1026.2
20260905221033 57 0 0.0 0.0 0.00 0.00 0.00 100 1026.2
20260905220531 57 0 0.0 0.0 0.00 0.00 0.00 100 1026.1
20260905220052 57 0 0.0 0.0 0.00 0.00 0.00 100 1026.1
20260905215532 57 0 0.0 0.0 0.00 0.00 0.00 100 1026.1
20260905215033 57 0 0.0 0.0 0.00 0.00 0.00 100 1026.1
20260905214601 57 0 0.0 0.0 0.00 0.00 0.00 100 1026.0
20260905214032 57 0 0.0 0.0 0.00 0.00 0.00 100 1025.8
20260905213532 57 0 0.0 0.0 0.00 0.00 0.00 100 1025.9
20260905213053 57 0 0.0 0.0 0.00 0.00 0.00 100 1026.1
20260905212534 57 0 0.0 0.0 0.00 0.00 0.00 100 1025.9
20260905212032 57 0 0.0 0.0 0.00 0.00 0.00 100 1026.0
20260905211556 57 0 0.0 0.0 0.00 0.00 0.00 100 1025.9
20260905211031 57 0 0.0 0.0 0.00 0.00 0.00 100 1025.9
20260905210531 58 0 0.0 0.0 0.00 0.00 0.00 100 1025.8
20260905210058 58 0 0.0 0.0 0.00 0.00 0.00 100 1025.9
20260905205531 58 0 0.0 0.0 0.00 0.00 0.00 100 1025.8
20260905205032 58 0 0.0 0.0 0.00 0.00 0.00 100 1025.8
20260905204547 58 0 0.0 0.0 0.00 0.00 0.00 100 1025.9
20260905204031 58 0 0.0 0.0 0.00 0.00 0.00 100 1026.0
20260905203534 59 0 0.0 0.0 0.00 0.00 0.00 100 1026.1
20260905203054 59 0 0.0 0.0 0.00 0.00 0.00 100 1026.0
20260905202533 59 0 0.0 0.0 0.00 0.00 0.00 100 1026.0
20260905202033 59 0 0.0 0.0 0.00 0.00 0.00 100 1026.0
20260905201552 59 0 0.0 0.0 0.00 0.00 0.00 100 1026.0
20260905201032 59 0 0.0 0.0 0.00 0.00 0.00 100 1025.9
20260905200533 59 0 0.0 0.0 0.00 0.00 0.00 100 1025.8
20260905200050 60 0 0.0 1.0 0.00 0.00 0.00 100 1025.8
20260905195534 60 0 0.0 1.0 0.00 0.00 0.00 100 1025.9
20260905195034 60 0 0.0 0.0 0.00 0.00 0.00 100 1025.9
20260905194549 60 0 0.0 1.0 0.00 0.00 0.00 100 1025.9
20260905194031 60 0 0.0 1.0 0.00 0.00 0.00 100 1025.9
20260905193530 61 0 0.0 3.0 0.00 0.00 0.00 100 1025.8
20260905193044 61 0 0.0 3.0 0.00 0.00 0.00 100 1025.8
20260905192532 61 247 0.0 3.0 0.00 0.00 0.00 100 1025.7
20260905192033 61 0 1.0 3.0 0.00 0.00 0.00 100 1025.7
20260905191556 61 0 0.0 3.0 0.00 0.00 0.00 100 1025.7
20260905191031 62 0 0.0 3.0 0.00 0.00 0.00 100 1025.6
20260905190533 62 0 0.0 3.0 0.00 0.00 0.00 100 1025.6
20260905190053 62 190 0.0 3.0 0.00 0.00 0.00 100 1025.5
20260905185532 62 211 0.0 3.0 0.00 0.00 0.00 100 1025.5
20260905185035 62 0 0.0 4.0 0.00 0.00 0.00 100 1025.3
20260905184610 63 0 0.0 4.0 0.00 0.00 0.00 100 1025.3
20260905184031 63 208 0.0 3.0 0.00 0.00 0.00 100 1025.5
20260905183533 63 219 0.0 3.0 0.00 0.00 0.00 100 1025.3
20260905183055 64 0 0.0 3.0 0.00 0.00 0.00 100 1025.3
20260905182533 64 204 0.0 4.0 0.00 0.00 0.00 100 1025.3
20260905182033 64 0 1.0 5.0 0.00 0.00 0.00 100 1025.4
20260905181557 64 212 1.0 5.0 0.00 0.00 0.00 100 1025.3
20260905181031 65 232 1.0 5.0 0.00 0.00 0.00 100 1025.3
20260905180533 65 0 0.0 5.0 0.00 0.00 0.00 100 1025.4
20260905180051 65 0 1.0 5.0 0.00 0.00 0.00 100 1025.3
20260905175531 65 197 1.0 6.0 0.00 0.00 0.00 100 1025.3
20260905175032 66 239 2.0 6.0 0.00 0.00 0.00 100 1025.2
20260905174556 66 211 1.0 6.0 0.00 0.00 0.00 100 1025.2
20260905174031 67 180 2.0 6.0 0.00 0.00 0.00 100 1025.2
20260905173531 67 234 0.0 6.0 0.00 0.00 0.00 100 1025.1
20260905173052 68 0 0.0 6.0 0.00 0.00 0.00 100 1025.1
20260905172531 68 180 0.0 6.0 0.00 0.00 0.00 100 1025.2
20260905172036 68 0 1.0 5.0 0.00 0.00 0.00 100 1025.2
20260905171545 68 180 1.0 9.0 0.00 0.00 0.00 100 1025.2
20260905171032 68 197 2.0 9.0 0.00 0.00 0.00 100 1025.2
20260905170532 69 258 3.0 8.0 0.00 0.00 0.00 98 1025.2
20260905170055 69 242 1.0 6.0 0.00 0.00 0.00 100 1025.1
20260905165531 69 192 2.0 9.0 0.00 0.00 0.00 89 1025.2
20260905165033 69 141 2.0 9.0 0.00 0.00 0.00 44 1025.1
20260905164543 70 142 3.0 9.0 0.00 0.00 0.00 100 1025.1
20260905164032 70 246 1.0 7.0 0.00 0.00 0.00 100 1025.2
20260905163531 70 254 1.0 6.0 0.00 0.00 0.00 70 1025.1
20260905163047 70 0 1.0 6.0 0.00 0.00 0.00 12 1025.2
20260905162531 70 142 0.0 5.0 0.00 0.00 0.00 32 1025.1
20260905162033 70 229 1.0 9.0 0.00 0.00 0.00 41 1025.0
20260905161555 70 242 1.0 11.0 0.00 0.00 0.00 8 1025.1
20260905161034 70 234 2.0 11.0 0.00 0.00 0.00 100 1025.1
20260905160531 70 217 2.0 9.0 0.00 0.00 0.00 100 1025.0
20260905160049 71 191 4.0 9.0 0.00 0.00 0.00 100 1025.1
20260905155531 71 236 2.0 8.0 0.00 0.00 0.00 100 1025.2
20260905155031 71 222 1.0 8.0 0.00 0.00 0.00 100 1025.1
20260905154608 71 227 2.0 8.0 0.00 0.00 0.00 100 1025.1
20260905154031 72 0 2.0 8.0 0.00 0.00 0.00 100 1025.1
20260905153534 72 234 3.0 8.0 0.00 0.00 0.00 100 1025.1
20260905153044 73 276 1.0 8.0 0.00 0.00 0.00 100 1025.0
20260905152532 73 254 1.0 8.0 0.00 0.00 0.00 100 1025.0
20260905152032 73 209 2.0 8.0 0.00 0.00 0.00 100 1025.1
20260905151551 73 258 0.0 4.0 0.00 0.00 0.00 100 1025.1
20260905151032 73 0 1.0 6.0 0.00 0.00 0.00 100 1025.0
20260905150535 72 198 2.0 9.0 0.00 0.00 0.00 100 1025.0
20260905150051 72 0 1.0 9.0 0.00 0.00 0.00 100 1025.0
20260905145533 72 272 2.0 9.0 0.00 0.00 0.00 100 1025.0
20260905145031 72 263 0.0 8.0 0.00 0.00 0.00 100 1025.2
20260905144546 72 265 2.0 8.0 0.00 0.00 0.00 100 1025.1
20260905144030 72 232 3.0 8.0 0.00 0.00 0.00 100 1025.1
20260905143535 72 243 2.0 8.0 0.00 0.00 0.00 100 1025.0
20260905143053 72 221 2.0 8.0 0.00 0.00 0.00 100 1025.1
20260905142533 72 298 1.0 5.0 0.00 0.00 0.00 100 1025.0
20260905142031 71 217 0.0 4.0 0.00 0.00 0.00 100 1025.0
20260905141546 71 0 1.0 7.0 0.00 0.00 0.00 100 1025.1
20260905141033 71 292 2.0 7.0 0.00 0.00 0.00 100 1025.0
20260905140532 71 189 1.0 6.0 0.00 0.00 0.00 100 1025.0
20260905140058 71 228 1.0 4.0 0.00 0.00 0.00 100 1025.0
20260905135534 71 0 0.0 4.0 0.00 0.00 0.00 100 1025.0
20260905135035 71 21 1.0 8.0 0.00 0.00 0.00 100 1024.9
20260905134551 71 209 1.0 8.0 0.00 0.00 0.00 100 1025.0
20260905134031 71 234 2.0 8.0 0.00 0.00 0.00 100 1025.1
20260905133532 71 69 0.0 8.0 0.00 0.00 0.00 100 1025.0
20260905133051 71 0 1.0 9.0 0.00 0.00 0.00 100 1024.9
20260905132533 71 230 2.0 9.0 0.00 0.00 0.00 100 1025.0
20260905132033 71 225 3.0 9.0 0.00 0.00 0.00 100 1024.9
20260905131546 71 203 1.0 5.0 0.00 0.00 0.00 100 1024.9
20260905131033 71 137 1.0 7.0 0.00 0.00 0.00 100 1025.1
20260905130533 71 0 1.0 9.0 0.00 0.00 0.00 100 1025.0
20260905130053 70 257 2.0 9.0 0.00 0.00 0.00 100 1024.9
20260905125532 70 252 1.0 9.0 0.00 0.00 0.00 100 1025.0
20260905125033 70 82 1.0 6.0 0.00 0.00 0.00 100 1024.9
20260905124550 70 192 1.0 8.0 0.00 0.00 0.00 100 1025.0
20260905124037 70 250 2.0 8.0 0.00 0.00 0.00 100 1025.0
20260905123533 70 32 1.0 5.0 0.00 0.00 0.00 100 1024.9
20260905123056 70 0 1.0 6.0 0.00 0.00 0.00 100 1024.9
20260905122532 69 0 0.0 7.0 0.00 0.00 0.00 100 1024.9
20260905122033 69 352 1.0 8.0 0.00 0.00 0.00 100 1024.8
20260905121601 69 36 2.0 8.0 0.00 0.00 0.00 100 1024.9
20260905121033 69 29 2.0 6.0 0.00 0.00 0.00 100 1024.8
20260905120533 68 192 2.0 6.0 0.00 0.00 0.00 21 1024.8
20260905120054 68 330 1.0 7.0 0.00 0.00 0.00 100 1024.8
20260905115536 68 193 2.0 7.0 0.00 0.00 0.00 100 1024.7
20260905115036 68 231 1.0 7.0 0.00 0.00 0.00 100 1024.7
20260905114549 68 180 2.0 6.0 0.00 0.00 0.00 75 1024.8
20260905114032 67 315 1.0 8.0 0.00 0.00 0.00 84 1024.8
20260905113533 67 190 2.0 8.0 0.00 0.00 0.00 100 1024.9
20260905113050 67 269 2.0 8.0 0.00 0.00 0.00 61 1024.9
20260905112533 67 290 1.0 8.0 0.00 0.00 0.00 100 1024.8
20260905112032 67 239 2.0 8.0 0.00 0.00 0.00 100 1024.7
20260905111612 66 321 1.0 7.0 0.00 0.00 0.00 100 1024.7
20260905111033 66 240 2.0 6.0 0.00 0.00 0.00 100 1024.8
20260905110532 66 245 2.0 9.0 0.00 0.00 0.00 100 1024.8
20260905110043 66 140 2.0 9.0 0.00 0.00 0.00 100 1024.7
20260905105532 65 0 2.0 11.0 0.00 0.00 0.00 100 1024.7
20260905105032 65 207 2.0 11.0 0.00 0.00 0.00 100 1024.7
20260905104547 65 313 2.0 8.0 0.00 0.00 0.00 100 1024.7
20260905104033 64 65 0.0 6.0 0.00 0.00 0.00 100 1024.7
20260905103533 64 217 2.0 7.0 0.00 0.00 0.00 100 1024.7
20260905103045 64 246 1.0 8.0 0.00 0.00 0.00 100 1024.8
20260905102532 64 171 2.0 8.0 0.00 0.00 0.00 100 1024.7
20260905102032 64 0 2.0 9.0 0.00 0.00 0.00 100 1024.7
20260905101550 64 22 2.0 9.0 0.00 0.00 0.00 100 1024.6
20260905101033 64 13 2.0 10.0 0.00 0.00 0.00 100 1024.6
20260905100532 64 343 4.0 10.0 0.00 0.00 0.00 100 1024.6
20260905100053 63 227 2.0 9.0 0.00 0.00 0.00 100 1024.4
20260905095532 63 252 1.0 9.0 0.00 0.00 0.00 100 1024.2
20260905095032 63 46 1.0 8.0 0.00 0.00 0.00 100 1024.3
20260905094550 63 301 1.0 8.0 0.00 0.00 0.00 100 1024.3
20260905094035 62 238 2.0 11.0 0.00 0.00 0.00 100 1024.2
20260905093533 62 253 2.0 11.0 0.00 0.00 0.00 100 1024.1
20260905093044 62 225 1.0 6.0 0.00 0.00 0.00 100 1024.1
20260905092535 61 298 1.0 8.0 0.00 0.00 0.00 100 1024.2
20260905092034 61 219 3.0 8.0 0.00 0.00 0.00 100 1024.2
20260905091552 61 210 2.0 6.0 0.00 0.00 0.00 100 1024.1
20260905091032 60 319 2.0 11.0 0.00 0.00 0.00 100 1024.1
20260905090532 60 221 2.0 11.0 0.00 0.00 0.00 100 1024.1
20260905090046 60 284 1.0 7.0 0.00 0.00 0.00 100 1024.1
20260905085534 60 252 1.0 9.0 0.00 0.02 0.00 100 1024.0
20260905085033 59 21 2.0 9.0 0.00 0.02 0.00 100 1024.2
20260905084549 59 293 2.0 9.0 0.00 0.02 0.00 100 1024.1
20260905084034 59 333 1.0 6.0 0.00 0.02 0.00 100 1024.1
20260905083533 59 0 0.0 8.0 0.00 0.02 0.00 100 1024.1
20260905083052 58 288 0.0 8.0 0.00 0.02 0.00 100 1024.2
20260905082532 58 261 1.0 8.0 0.00 0.02 0.00 100 1024.1
20260905082032 58 243 1.0 7.0 0.00 0.02 0.00 100 1024.0
20260905081550 58 251 2.0 7.0 0.00 0.02 0.00 100 1023.8
20260905081034 57 294 1.0 7.0 0.00 0.02 0.00 100 1023.9
20260905080532 57 247 2.0 7.0 0.00 0.02 0.00 100 1024.0
20260905080056 57 224 2.0 8.0 0.00 0.02 0.00 100 1023.8
20260905075532 57 240 3.0 8.0 0.00 0.02 0.00 100 1023.7
20260905075032 57 0 1.0 10.0 0.00 0.02 0.00 100 1023.8
20260905074546 56 235 3.0 10.0 0.00 0.02 0.00 100 1023.7
20260905074033 56 211 2.0 8.0 0.00 0.02 0.00 100 1023.7
20260905073532 56 202 2.0 8.0 0.00 0.02 0.00 100 1023.6
20260905073056 56 0 3.0 8.0 0.00 0.02 0.00 100 1023.6
20260905072533 55 266 2.0 9.0 0.00 0.02 0.00 100 1023.5
20260905072036 55 241 2.0 9.0 0.00 0.02 0.00 100 1023.5
20260905071541 55 232 2.0 8.0 0.00 0.02 0.00 100 1023.4
20260905071033 55 261 3.0 9.0 0.00 0.02 0.00 100 1023.6
20260905070532 55 243 2.0 9.0 0.00 0.02 0.00 100 1023.4
20260905070051 54 237 2.0 9.0 0.00 0.02 0.00 100 1023.2
20260905065532 54 273 2.0 5.0 0.00 0.02 0.00 100 1023.2
20260905065033 54 259 2.0 7.0 0.00 0.02 0.00 100 1023.1
20260905064545 54 232 2.0 7.0 0.00 0.02 0.00 100 1023.2
20260905064032 53 246 2.0 7.0 0.00 0.02 0.00 100 1023.1
20260905063533 53 213 2.0 7.0 0.00 0.02 0.00 100 1023.0
20260905063044 53 236 1.0 6.0 0.00 0.02 0.00 100 1023.0
20260905062535 53 243 1.0 6.0 0.00 0.02 0.00 100 1022.9
20260905062032 53 232 1.0 6.0 0.00 0.02 0.00 100 1023.0
20260905061557 53 0 1.0 6.0 0.00 0.02 0.00 100 1023.1
20260905061032 53 169 0.0 7.0 0.00 0.02 0.00 100 1023.1
20260905060532 53 232 1.0 7.0 0.00 0.02 0.00 100 1023.0
20260905060053 53 281 1.0 7.0 0.00 0.02 0.00 100 1022.8
20260905055531 53 248 1.0 7.0 0.00 0.02 0.00 100 1022.6
20260905055032 53 212 1.0 4.0 0.00 0.02 0.00 100 1022.6
20260905054547 53 231 1.0 5.0 0.00 0.02 0.00 100 1022.6
20260905054033 52 243 1.0 5.0 0.00 0.02 0.00 100 1022.5
20260905053534 52 221 1.0 5.0 0.00 0.02 0.00 100 1022.4
20260905053046 52 248 1.0 5.0 0.00 0.02 0.00 100 1022.3
20260905052533 52 0 0.0 6.0 0.00 0.02 0.00 100 1022.3
20260905052034 52 245 1.0 6.0 0.00 0.02 0.00 100 1022.2
20260905051552 53 236 0.0 4.0 0.00 0.02 0.00 100 1022.2
20260905051032 53 244 0.0 6.0 0.00 0.02 0.00 100 1022.1
20260905050532 53 247 0.0 6.0 0.00 0.02 0.00 100 1022.0
20260905050055 53 232 1.0 8.0 0.00 0.02 0.00 100 1021.9
20260905045532 53 264 1.0 8.0 0.00 0.02 0.00 100 1022.0
20260905045035 53 0 2.0 8.0 0.00 0.02 0.00 100 1021.9
20260905044548 53 0 1.0 7.0 0.00 0.02 0.00 100 1021.9
20260905044033 53 244 1.0 7.0 0.00 0.02 0.00 100 1021.9
20260905043534 53 0 1.0 7.0 0.00 0.02 0.00 100 1021.9
20260905043059 53 0 1.0 7.0 0.00 0.02 0.00 100 1022.0
20260905042535 53 243 1.0 6.0 0.00 0.02 0.00 100 1021.9
20260905042034 53 294 1.0 4.0 0.00 0.02 0.00 100 1021.8
20260905041559 53 0 1.0 4.0 0.00 0.02 0.00 100 1021.8
20260905041032 53 255 0.0 4.0 0.00 0.02 0.00 100 1021.9
20260905040535 53 268 1.0 5.0 0.00 0.02 0.00 100 1021.7
20260905040104 53 202 1.0 5.0 0.00 0.02 0.00 100 1021.6
20260905035532 53 242 1.0 4.0 0.00 0.02 0.00 100 1021.4
20260905035034 53 223 1.0 4.0 0.00 0.02 0.00 100 1021.4
20260905034609 53 226 1.0 4.0 0.00 0.02 0.00 100 1021.4
20260905034033 53 257 1.0 5.0 0.00 0.02 0.00 100 1021.5
20260905033535 53 266 1.0 5.0 0.00 0.02 0.00 100 1021.4
20260905033113 53 252 1.0 5.0 0.00 0.02 0.00 100 1021.4
20260905032533 53 252 0.0 5.0 0.00 0.02 0.00 100 1021.4
20260905032032 53 0 1.0 5.0 0.00 0.02 0.00 100 1021.4
20260905031600 54 247 1.0 5.0 0.00 0.02 0.00 100 1021.4
20260905031035 54 221 0.0 4.0 0.00 0.02 0.00 100 1021.4
20260905030532 54 0 1.0 4.0 0.00 0.02 0.00 100 1021.4
20260905030055 54 234 1.0 4.0 0.00 0.02 0.00 100 1021.3
20260905025531 54 232 1.0 4.0 0.00 0.02 0.00 100 1021.3
20260905025032 54 240 1.0 4.0 0.00 0.02 0.00 100 1021.2
20260905024543 54 0 0.0 5.0 0.00 0.02 0.00 100 1021.1
20260905024031 54 0 0.0 6.0 0.00 0.02 0.00 100 1021.1
20260905023535 54 0 1.0 6.0 0.00 0.02 0.00 100 1021.0
20260905023106 54 242 1.0 4.0 0.00 0.02 0.00 100 1021.0
20260905022533 54 226 0.0 6.0 0.00 0.02 0.00 100 1020.8
20260905022034 54 252 1.0 6.0 0.00 0.02 0.00 100 1020.8
20260905021548 54 212 2.0 6.0 0.00 0.02 0.00 100 1020.8
20260905021033 54 197 0.0 5.0 0.00 0.02 0.00 100 1020.8
20260905020533 54 232 1.0 5.0 0.00 0.02 0.00 100 1020.7
20260905020045 54 235 1.0 5.0 0.00 0.02 0.00 100 1020.7
20260905015533 54 0 1.0 8.0 0.00 0.02 0.00 100 1020.8
20260905015032 54 227 1.0 8.0 0.00 0.02 0.00 100 1020.7
20260905014553 55 231 2.0 8.0 0.00 0.02 0.00 100 1020.6
20260905014031 54 238 1.0 7.0 0.00 0.02 0.00 100 1020.7
20260905013536 55 0 1.0 6.0 0.00 0.02 0.00 100 1020.7
20260905013046 55 239 2.0 7.0 0.00 0.02 0.00 100 1020.7
20260905012535 55 244 1.0 7.0 0.00 0.02 0.00 100 1020.6
20260905012035 55 267 1.0 6.0 0.00 0.02 0.00 100 1020.6
20260905011547 55 236 1.0 8.0 0.00 0.02 0.00 100 1020.5
20260905011035 55 0 1.0 8.0 0.00 0.02 0.00 100 1020.6
20260905010533 55 248 2.0 8.0 0.00 0.02 0.00 100 1020.5
20260905010106 55 0 1.0 7.0 0.00 0.02 0.00 100 1020.5
20260905005536 55 195 1.0 7.0 0.00 0.02 0.00 100 1020.5
20260905005035 55 0 1.0 7.0 0.00 0.02 0.00 100 1020.5
20260905004553 55 250 1.0 5.0 0.00 0.02 0.00 100 1020.5
20260905004032 55 217 1.0 7.0 0.00 0.02 0.00 100 1020.6
20260905003532 55 219 1.0 7.0 0.00 0.02 0.00 100 1020.5
20260905003049 55 252 2.0 8.0 0.00 0.02 0.00 100 1020.5
20260905002532 55 267 2.0 8.0 0.00 0.02 0.00 100 1020.5
20260905002034 55 229 0.0 4.0 0.00 0.02 0.00 100 1020.4
20260905001553 55 0 1.0 4.0 0.00 0.02 0.00 100 1020.4
20260905001034 55 238 1.0 4.0 0.00 0.02 0.00 100 1020.4